Vorticity
8 12 -13 4 12 10 16 12 10 12 3 -12 -1 2 3 20 15 11 6 -3 10 14 8 7 5 3 0 3 16 7 16 9 10 8 5 5 1 1 2 3 3 4 5 9
8 -3 4 4 4 4 5 6 4 -1 3 -2 20 5 5 1 5 11 10 15 6 11 8 2 2 1 2 5 8 10 15 18 17 10 7 5 5 6 7 5 4 3 6 9
4 -28 23 31 8 1 6 3 2 5 4 9 14 13 10 5 -7 21 7 3 22 14 6 4 -1 3 3 -0 5 2 1 6 25 15 10 6 5 5 4 7 7 9 9 9
-4 13 4 -3 -9 2 1 7 7 20 5 -2 11 10 15 13 9 8 5 -3 7 14 0 -0 1 5 7 1 5 6 2 -2 7 22 13 8 6 6 6 5 8 7 9 10
-2 -18 41 30 17 12 10 18 14 1 35 0 11 7 10 22 18 24 12 11 -1 11 25 6 4 0 8 1 4 8 5 4 5 9 22 12 10 8 6 7 8 8 7 7
6 18 3 -11 0 -8 10 10 23 16 17 24 7 -3 27 9 6 29 32 28 7 16 5 33 7 7 7 1 6 5 5 3 2 22 20 13 9 8 7 8 8 6 6 5
20 26 30 41 23 -6 -15 -7 25 25 21 -0 14 26 -18 -27 -19 -7 19 22 2 29 10 11 31 11 6 1 5 6 4 6 18 19 15 11 9 9 8 9 7 5 5 5
29 41 30 37 49 21 23 1 -53 33 10 8 17 26 27 48 26 14 19 20 12 15 7 30 31 16 8 7 6 4 5 11 20 17 11 8 9 9 10 8 5 5 5 3
-8 13 20 -29 3 -6 72 4 32 6 -5 8 -3 -1 -19 16 -4 31 24 18 26 37 44 45 31 11 12 8 5 6 10 18 18 12 9 11 12 10 7 4 3 4 4 10
17 17 24 28 11 3 11 44 26 -5 7 13 16 9 -6 31 29 30 21 14 19 10 11 15 26 11 10 8 7 22 17 20 13 12 11 7 7 7 4 4 6 6 10 11
13 14 -10 -22 15 16 6 8 10 30 12 0 10 15 6 -13 -5 -0 20 18 17 22 18 11 -16 -1 6 10 8 2 11 4 6 9 9 8 7 5 2 2 3 10 14 10
11 -1 1 -5 13 21 16 3 4 5 11 22 -3 5 -15 -1 41 16 16 -10 1 -4 4 11 20 37 4 -2 22 12 2 7 10 10 9 7 8 3 1 1 10 15 9 8
-9 12 22 27 44 26 13 1 8 5 21 2 22 5 -43 -13 -36 2 20 17 19 4 10 -0 -3 -3 10 7 14 -1 4 5 8 11 8 4 5 4 6 9 12 8 6 8
8 11 -14 -35 -29 -26 -1 1 -8 1 12 -10 -13 -4 -1 11 18 18 15 27 7 49 -8 10 29 3 5 8 14 3 5 7 8 9 8 3 8 7 10 10 8 7 10 12
21 3 23 17 15 15 17 6 -3 7 -2 5 -4 2 7 6 5 -5 -6 18 -8 -4 2 3 -5 7 -3 6 15 3 2 7 4 4 6 4 7 10 10 8 8 11 12 9
2 -3 9 10 6 8 7 8 11 6 3 0 13 12 14 20 19 22 13 34 5 9 5 -0 7 2 4 15 13 3 3 2 7 8 6 5 11 11 8 8 10 11 8 7
22 14 7 1 62 8 45 12 12 24 29 14 8 16 -7 15 -2 13 24 20 6 7 8 17 14 12 9 9 6 27 3 8 10 9 13 12 10 8 9 11 10 7 8 9
-2 7 6 11 21 9 -2 14 24 15 6 9 9 7 -2 8 4 4 -5 15 14 19 13 11 17 18 12 8 8 8 20 11 12 12 12 9 9 9 10 9 8 9 11 10
11 6 -8 -9 28 -2 -13 9 -9 2 8 7 39 10 14 12 14 14 9 18 4 4 7 27 18 26 21 -1 16 19 -12 9 15 9 9 9 10 11 8 8 10 12 10 8
36 16 17 4 2 2 -21 12 -7 -10 6 15 -28 7 11 -6 -0 12 18 23 28 27 14 10 2 24 19 17 19 17 15 16 8 9 9 10 12 7 9 11 12 9 8 10
4 17 21 14 11 17 22 24 26 47 24 35 19 15 -3 8 15 15 10 16 26 17 29 18 10 6 8 5 11 -5 17 5 11 8 9 11 7 10 12 11 9 9 11 11
2 -2 10 26 13 17 3 5 1 10 10 -0 6 -4 23 16 21 26 10 8 6 12 24 15 7 12 19 10 13 16 12 12 10 9 10 8 10 12 11 10 9 12 12 12
3 -10 -9 -18 -18 -27 9 -2 3 7 -2 10 4 10 40 -5 22 9 9 10 1 2 13 12 6 5 12 16 21 12 9 9 10 10 9 12 11 10 9 9 9 9 9 9
22 -2 -2 12 15 -12 -10 18 -1 -1 -2 9 10 2 27 51 18 3 8 5 8 15 14 15 6 11 9 36 14 8 9 11 10 9 12 11 10 9 8 9 9 8 7 7
-1 -14 -13 -2 -4 3 12 21 17 11 8 6 16 15 9 12 -0 4 15 12 9 5 16 17 11 20 28 15 10 8 12 9 9 11 11 11 8 8 9 8 7 6 6 6
-3 -5 -3 6 5 12 10 20 11 16 23 19 7 17 8 21 11 13 15 4 8 13 14 17 28 24 13 11 6 12 9 8 11 11 11 9 7 8 7 7 7 6 7 6
Height
3093 3090 3086 3089 3090 3092 3092 3089 3087 3088 3090 3089 3087 3085 3087 3087 3087 3088 3088 3089 3088 3090 3088 3090 3091 3093 3095 3097 3097 3099 3100 3100 3099 3099 3100 3100 3099 3101 3102 3101 3100 3099 3098 3097
3086 3076 3082 3086 3087 3087 3086 3084 3081 3082 3084 3085 3081 3077 3079 3081 3082 3084 3085 3084 3083 3082 3082 3083 3086 3087 3089 3091 3092 3094 3094 3093 3093 3094 3094 3093 3094 3095 3097 3095 3095 3093 3092 3091
3075 3074 3081 3079 3079 3082 3079 3078 3078 3078 3080 3078 3075 3066 3070 3074 3076 3078 3079 3079 3078 3076 3075 3076 3078 3080 3082 3085 3086 3088 3089 3087 3088 3088 3088 3087 3087 3088 3090 3090 3088 3087 3086 3085
3066 3068 3071 3072 3070 3078 3068 3076 3073 3072 3073 3069 3073 3056 3060 3064 3067 3070 3072 3072 3073 3070 3070 3072 3073 3073 3074 3076 3078 3080 3083 3083 3082 3082 3082 3081 3081 3080 3082 3084 3083 3081 3080 3079
3052 3063 3064 3062 3066 3071 3061 3067 3066 3065 3063 3063 3060 3065 3050 3057 3058 3061 3065 3064 3065 3063 3062 3064 3066 3067 3069 3070 3073 3074 3077 3077 3077 3076 3076 3075 3075 3075 3076 3076 3076 3075 3074 3073
3049 3056 3057 3055 3058 3059 3060 3060 3059 3060 3057 3055 3046 3058 3042 3050 3053 3053 3054 3054 3055 3053 3053 3052 3054 3057 3062 3064 3065 3067 3070 3071 3071 3070 3069 3070 3071 3071 3071 3070 3070 3069 3067 3066
3048 3046 3046 3048 3050 3052 3054 3057 3055 3052 3050 3043 3048 3050 3038 3043 3047 3042 3044 3042 3043 3041 3040 3041 3043 3048 3052 3057 3059 3063 3064 3064 3064 3064 3065 3065 3065 3065 3065 3065 3065 3065 3062 3060
3046 3042 3039 3041 3043 3038 3042 3048 3049 3044 3042 3040 3040 3037 3038 3040 3038 3034 3034 3032 3030 3031 3032 3032 3036 3040 3048 3052 3056 3059 3059 3059 3058 3059 3061 3061 3059 3060 3060 3061 3061 3059 3057 3054
3045 3037 3038 3037 3036 3036 3032 3034 3042 3040 3039 3039 3035 3032 3035 3037 3036 3030 3030 3027 3025 3027 3028 3030 3038 3043 3044 3049 3055 3056 3054 3054 3053 3052 3054 3056 3055 3055 3056 3056 3054 3052 3050 3047
3038 3035 3032 3032 3032 3033 3029 3030 3033 3033 3036 3036 3030 3030 3030 3031 3029 3028 3025 3024 3023 3024 3027 3033 3036 3043 3045 3048 3049 3048 3050 3049 3048 3049 3049 3049 3050 3049 3050 3049 3048 3046 3044 3041
3034 3034 3030 3031 3031 3027 3026 3027 3027 3026 3027 3029 3029 3028 3027 3025 3027 3028 3024 3022 3025 3026 3028 3032 3035 3038 3040 3040 3041 3044 3046 3045 3045 3045 3045 3045 3045 3044 3044 3043 3041 3040 3038 3034
3031 3031 3028 3028 3027 3025 3024 3026 3024 3023 3023 3022 3022 3022 3021 3021 3025 3023 3022 3017 3023 3026 3027 3028 3031 3032 3034 3037 3038 3041 3041 3040 3040 3040 3040 3040 3040 3039 3038 3037 3035 3033 3032 3027
3029 3027 3026 3023 3023 3022 3021 3021 3023 3019 3023 3020 3022 3017 3015 3019 3018 3020 3016 3016 3016 3018 3021 3021 3024 3028 3029 3031 3035 3037 3036 3035 3035 3035 3035 3035 3034 3033 3032 3031 3029 3027 3025 3021
3023 3023 3022 3022 3022 3021 3020 3020 3021 3022 3019 3018 3020 3015 3017 3020 3021 3019 3015 3011 3013 3017 3017 3020 3022 3025 3028 3029 3031 3032 3030 3029 3029 3029 3030 3029 3028 3027 3026 3024 3022 3020 3018 3015
3016 3013 3013 3013 3013 3016 3016 3016 3016 3016 3013 3018 3017 3016 3009 3015 3018 3017 3015 3011 3012 3014 3014 3016 3018 3021 3024 3024 3024 3025 3023 3023 3024 3023 3024 3023 3022 3021 3020 3019 3016 3014 3012 3008
3009 3009 3008 3008 3009 3009 3006 3006 3006 3008 3010 3013 3013 3010 3011 3014 3014 3010 3007 3004 3006 3006 3006 3008 3011 3014 3016 3018 3018 3018 3018 3018 3018 3019 3019 3017 3016 3016 3014 3012 3011 3009 3005 3001
3006 3005 3004 3003 3002 3002 3002 2998 3003 3003 3005 3009 3007 3004 3003 3001 2998 2997 2999 2999 2997 2998 2999 3000 3001 3005 3009 3010 3010 3010 3011 3012 3012 3012 3011 3010 3010 3010 3009 3007 3005 3002 2999 2997
2999 3000 3001 3002 3001 2996 2993 2996 2996 2998 2999 3001 2998 2996 2996 2995 2993 2992 2994 2995 2994 2995 2995 2995 2996 2998 2999 3000 3002 3002 3003 3006 3005 3006 3005 3006 3006 3004 3003 3002 3000 2997 2995 2992
2990 2994 2996 2998 2997 2994 2991 2991 2992 2990 2991 2992 2989 2991 2989 2987 2986 2987 2987 2986 2988 2991 2991 2990 2991 2990 2986 2992 2996 2997 2997 2998 3000 3000 3000 3001 3000 2999 2998 2997 2994 2992 2989 2985
2984 2987 2990 2991 2993 2991 2984 2988 2987 2987 2985 2985 2988 2987 2984 2983 2981 2980 2980 2981 2983 2985 2986 2984 2984 2980 2988 2989 2991 2991 2991 2991 2994 2995 2995 2996 2996 2995 2994 2992 2990 2987 2983 2981
2978 2979 2982 2984 2986 2984 2981 2980 2982 2982 2984 2979 2980 2979 2978 2978 2979 2978 2978 2978 2978 2979 2979 2980 2981 2982 2983 2984 2986 2986 2986 2988 2990 2990 2990 2992 2991 2991 2990 2988 2984 2981 2980 2976
2971 2974 2976 2979 2980 2979 2978 2976 2980 2980 2978 2976 2976 2975 2973 2974 2974 2974 2973 2974 2974 2974 2975 2974 2976 2977 2978 2980 2981 2981 2982 2984 2985 2986 2987 2988 2987 2987 2985 2983 2980 2979 2977 2973
2969 2969 2969 2970 2970 2971 2971 2972 2973 2974 2972 2971 2969 2969 2968 2968 2968 2967 2969 2969 2969 2969 2969 2970 2969 2970 2971 2974 2975 2976 2978 2981 2982 2983 2984 2984 2984 2982 2981 2979 2978 2976 2973 2970
2962 2964 2963 2963 2962 2964 2964 2965 2967 2967 2965 2965 2964 2964 2963 2961 2962 2963 2964 2963 2963 2964 2964 2964 2965 2965 2965 2967 2968 2971 2975 2977 2978 2979 2980 2980 2979 2978 2978 2977 2975 2972 2969 2966
2956 2958 2957 2955 2955 2955 2955 2955 2957 2957 2958 2959 2958 2958 2957 2956 2956 2958 2958 2958 2958 2958 2958 2958 2959 2959 2961 2963 2965 2970 2972 2973 2974 2975 2976 2976 2976 2976 2975 2974 2971 2968 2967 2963
2946 2948 2950 2945 2949 2947 2946 2948 2948 2949 2950 2950 2948 2949 2949 2950 2950 2950 2951 2951 2952 2951 2951 2952 2954 2957 2958 2961 2963 2966 2967 2968 2971 2972 2973 2973 2973 2973 2972 2970 2968 2966 2963 2960